Regional Weather Roundup
Issued by NWS Charleston, WV

Home | Current Version | Previous Version | Text Only | Print | Product List | Glossary Off
Versions: 1 2 3 4 5 6 7 8 9 10 11 12 13 14 15 16 17 18 19 20 21 22 23 24 25 26 27 28 29 30 31 32 33 34 35 36 37 38 39 40 41 42 43 44 45 46 47 48 49 50

000
ASUS41 KRLX 130710
RWRRLX
West Virginia Regional Weather Roundup
National Weather Service Charleston WV
200 AM EST SAT FEB 13 2016

Note: "fair" indicates few or no clouds below 12,000 feet with no
significant weather and/or obstructions to visibility.

WVZ003-130800-
Northern Panhandle of West Virginia

CITY           SKY/WX    TMP DP  RH WIND       PRES   REMARKS
WHEELING         N/A     14   4  64 W15G23    30.11R WCI  -1
$$

WVZ009-130800-
Northwest West Virginia

CITY           SKY/WX    TMP DP  RH WIND       PRES   REMARKS
PARKERSBURG      N/A     16   5  62 W14G20    30.24R WCI   2
$$

WVZ006-130800-
Western West Virginia

CITY           SKY/WX    TMP DP  RH WIND       PRES   REMARKS
HUNTINGTON     CLOUDY    19   9  65 NW8       30.28R WCI   9
$$

WVZ015-130800-
West Central West Virginia

CITY           SKY/WX    TMP DP  RH WIND       PRES   REMARKS
CHARLESTON     CLOUDY    19   6  57 NW12G20   30.24R WCI   7
$$

WVZ022-031-130800-
North Central West Virginia

CITY           SKY/WX    TMP DP  RH WIND       PRES   REMARKS
CLARKSBURG     LGT SNOW  15   7  70 NW12      30.13R WCI   2
MORGANTOWN     MOCLDY    15   1  53 W13G22    30.10R WCI   1
$$

WVZ025-035-042-045-130800-
Southern West Virginia

CITY           SKY/WX    TMP DP  RH WIND       PRES   REMARKS
BECKLEY        LGT SNOW  15  10  80 N16G24    30.06R VSB 3/4 WCI  -1
LOGAN          CLOUDY    19   5  53 NW16G25   30.16S WCI   5
BLUEFIELD      LGT SNOW  16  12  84 NW12G22   30.02R VSB 1   WCI   3
LEWISBURG      LGT SNOW  19  10  68 N17       30.03R WCI   4
$$

WVZ047-130800-
Northern Mountains of West Virginia

CITY           SKY/WX    TMP DP  RH WIND       PRES   REMARKS
ELKINS         LGT SNOW  13   2  61 NW16G25   30.05R WCI  -3
$$

WVZ052-130800-
Eastern Panhandle of West Virginia

CITY           SKY/WX    TMP DP  RH WIND       PRES   REMARKS
MARTINSBURG    CLOUDY    23   9  55 W18G25    29.99R WCI   9
PETERSBURG     FLURRIES  21   8  59 CALM      30.07R
$$



USA.gov is the U.S. government's official web portal to all federal, state and local government web resources and services.